iso_date,epoch_date,Year,Hour,Min,DOY,POS_DOY,Lat,Lon,BP,Ts,Ta,has_bp,has_ts,has_ta,BuoyID,Buoy_Type,Buoy_Owner,Logistics,Hemisphere
2021-08-16T20:11:02Z,1629144662,2021,20,11,228.841,228.841,69.35476,-50.95026,-999.00,-999.00,-999.0,no,no,no,4434609,SPIT,USIABP,ICE-PPR<br>DiskoBay,North
2021-08-16T20:20:58Z,1629145259,2021,20,21,228.8479,228.8479,69.35491,-50.94986,-999.00,-999.00,-999.0,no,no,no,4434609,SPIT,USIABP,ICE-PPR<br>DiskoBay,North
2021-08-16T20:51:04Z,1629147064,2021,20,51,228.8688,228.8688,69.35486,-50.94943,-999.00,-999.00,-999.0,no,no,no,4434609,SPIT,USIABP,ICE-PPR<br>DiskoBay,North
2021-08-16T21:21:01Z,1629148861,2021,21,21,228.8896,228.8896,69.35477,-50.94986,-999.00,-999.00,-999.0,no,no,no,4434609,SPIT,USIABP,ICE-PPR<br>DiskoBay,North
2021-08-16T21:50:58Z,1629150659,2021,21,51,228.9104,228.9104,69.35481,-50.94943,-999.00,-999.00,-999.0,no,no,no,4434609,SPIT,USIABP,ICE-PPR<br>DiskoBay,North
2021-08-16T22:21:56Z,1629152516,2021,22,22,228.9319,228.9319,69.3548,-50.95038,-999.00,-999.00,-999.0,no,no,no,4434609,SPIT,USIABP,ICE-PPR<br>DiskoBay,North
2021-08-16T22:51:01Z,1629154261,2021,22,51,228.9521,228.9521,69.35469,-50.95016,-999.00,-999.00,-999.0,no,no,no,4434609,SPIT,USIABP,ICE-PPR<br>DiskoBay,North
2021-08-16T23:19:58Z,1629155998,2021,23,20,228.9722,228.9722,69.35495,-50.95124,-999.00,-999.00,-999.0,no,no,no,4434609,SPIT,USIABP,ICE-PPR<br>DiskoBay,North
2021-08-16T23:50:03Z,1629157804,2021,23,50,228.9931,228.9931,69.35529,-50.95115,-999.00,-999.00,-999.0,no,no,no,4434609,SPIT,USIABP,ICE-PPR<br>DiskoBay,North
2021-08-17T00:20:00Z,1629159601,2021,0,20,229.0139,229.0139,69.35495,-50.95081,-999.00,-999.00,-999.0,no,no,no,4434609,SPIT,USIABP,ICE-PPR<br>DiskoBay,North
2021-08-17T00:50:58Z,1629161459,2021,0,51,229.0354,229.0354,69.35487,-50.95093,-999.00,-999.00,-999.0,no,no,no,4434609,SPIT,USIABP,ICE-PPR<br>DiskoBay,North
2021-08-17T01:20:03Z,1629163204,2021,1,20,229.0556,229.0556,69.35462,-50.95038,-999.00,-999.00,-999.0,no,no,no,4434609,SPIT,USIABP,ICE-PPR<br>DiskoBay,North
2021-08-17T01:50:00Z,1629165001,2021,1,50,229.0764,229.0764,69.35477,-50.95032,-999.00,-999.00,-999.0,no,no,no,4434609,SPIT,USIABP,ICE-PPR<br>DiskoBay,North
2021-08-17T02:19:58Z,1629166798,2021,2,20,229.0972,229.0972,69.35494,-50.95004,-999.00,-999.00,-999.0,no,no,no,4434609,SPIT,USIABP,ICE-PPR<br>DiskoBay,North
2021-08-17T02:51:04Z,1629168664,2021,2,51,229.1188,229.1188,69.35496,-50.95032,-999.00,-999.00,-999.0,no,no,no,4434609,SPIT,USIABP,ICE-PPR<br>DiskoBay,North
2021-08-17T03:20:00Z,1629170401,2021,3,20,229.1389,229.1389,69.3548,-50.9502,-999.00,-999.00,-999.0,no,no,no,4434609,SPIT,USIABP,ICE-PPR<br>DiskoBay,North
2021-08-17T03:49:58Z,1629172198,2021,3,50,229.1597,229.1597,69.35477,-50.95032,-999.00,-999.00,-999.0,no,no,no,4434609,SPIT,USIABP,ICE-PPR<br>DiskoBay,North
2021-08-17T04:20:03Z,1629174004,2021,4,20,229.1806,229.1806,69.35486,-50.95035,-999.00,-999.00,-999.0,no,no,no,4434609,SPIT,USIABP,ICE-PPR<br>DiskoBay,North
2021-08-17T04:50:00Z,1629175801,2021,4,50,229.2014,229.2014,69.3548,-50.95078,-999.00,-999.00,-999.0,no,no,no,4434609,SPIT,USIABP,ICE-PPR<br>DiskoBay,North
2021-08-17T05:18:57Z,1629177538,2021,5,19,229.2215,229.2215,69.35474,-50.95012,-999.00,-999.00,-999.0,no,no,no,4434609,SPIT,USIABP,ICE-PPR<br>DiskoBay,North
2021-08-17T05:49:03Z,1629179343,2021,5,49,229.2424,229.2424,69.35474,-50.94995,-999.00,-999.00,-999.0,no,no,no,4434609,SPIT,USIABP,ICE-PPR<br>DiskoBay,North
2021-08-17T06:19:00Z,1629181140,2021,6,19,229.2632,229.2632,69.3546,-50.9494,-999.00,-999.00,-999.0,no,no,no,4434609,SPIT,USIABP,ICE-PPR<br>DiskoBay,North
2021-08-17T06:48:57Z,1629182938,2021,6,49,229.284,229.284,69.35478,-50.94946,-999.00,-999.00,-999.0,no,no,no,4434609,SPIT,USIABP,ICE-PPR<br>DiskoBay,North
2021-08-17T07:19:03Z,1629184743,2021,7,19,229.3049,229.3049,69.35474,-50.94989,-999.00,-999.00,-999.0,no,no,no,4434609,SPIT,USIABP,ICE-PPR<br>DiskoBay,North
2021-08-17T07:49:00Z,1629186540,2021,7,49,229.3257,229.3257,69.355,-50.94998,-999.00,-999.00,-999.0,no,no,no,4434609,SPIT,USIABP,ICE-PPR<br>DiskoBay,North
2021-08-17T08:18:57Z,1629188338,2021,8,19,229.3465,229.3465,69.35478,-50.9494,-999.00,-999.00,-999.0,no,no,no,4434609,SPIT,USIABP,ICE-PPR<br>DiskoBay,North
2021-08-17T10:18:02Z,1629195483,2021,10,18,229.4292,229.4292,69.35451,-51.06981,-999.00,-999.00,-999.0,no,no,no,4434609,SPIT,USIABP,ICE-PPR<br>DiskoBay,North
2021-08-17T10:48:00Z,1629197280,2021,10,48,229.45,229.45,69.38233,-51.34739,-999.00,-999.00,-999.0,no,no,no,4434609,SPIT,USIABP,ICE-PPR<br>DiskoBay,North
2021-08-17T11:17:57Z,1629199077,2021,11,18,229.4708,229.4708,69.37585,-51.39185,-999.00,-999.00,-999.0,no,no,no,4434609,SPIT,USIABP,ICE-PPR<br>DiskoBay,North
2021-08-17T14:16:56Z,1629209817,2021,14,17,229.5951,229.5951,69.22674,-51.14515,-999.00,-999.00,-999.0,no,no,no,4434609,SPIT,USIABP,ICE-PPR<br>DiskoBay,North
2021-08-17T14:47:02Z,1629211622,2021,14,47,229.616,229.616,69.2276,-51.14086,-999.00,-999.00,-999.0,no,no,no,4434609,SPIT,USIABP,ICE-PPR<br>DiskoBay,North
2021-08-17T15:16:59Z,1629213420,2021,15,17,229.6368,229.6368,69.23863,-51.14618,-999.00,-999.00,-999.0,no,no,no,4434609,SPIT,USIABP,ICE-PPR<br>DiskoBay,North
2021-08-17T15:46:56Z,1629215217,2021,15,47,229.6576,229.6576,69.23589,-51.15063,-999.00,-999.00,-999.0,no,no,no,4434609,SPIT,USIABP,ICE-PPR<br>DiskoBay,North
2021-08-17T16:17:02Z,1629217022,2021,16,17,229.6785,229.6785,69.24487,-51.15201,-999.00,-999.00,-999.0,no,no,no,4434609,SPIT,USIABP,ICE-PPR<br>DiskoBay,North
2021-08-17T16:46:59Z,1629218820,2021,16,47,229.6993,229.6993,69.23779,-51.15277,-999.00,-999.00,-999.0,no,no,no,4434609,SPIT,USIABP,ICE-PPR<br>DiskoBay,North
2021-08-17T17:15:56Z,1629220556,2021,17,16,229.7194,229.7194,69.24249,-51.15398,-999.00,-999.00,-999.0,no,no,no,4434609,SPIT,USIABP,ICE-PPR<br>DiskoBay,North
2021-08-17T17:46:01Z,1629222362,2021,17,46,229.7403,229.7403,69.24146,-51.15458,-999.00,-999.00,-999.0,no,no,no,4434609,SPIT,USIABP,ICE-PPR<br>DiskoBay,North
2021-08-17T18:15:59Z,1629224159,2021,18,16,229.7611,229.7611,69.26806,-51.15338,-999.00,-999.00,-999.0,no,no,no,4434609,SPIT,USIABP,ICE-PPR<br>DiskoBay,North
2021-08-17T18:45:56Z,1629225956,2021,18,46,229.7819,229.7819,69.3606,-51.03409,-999.00,-999.00,-999.0,no,no,no,4434609,SPIT,USIABP,ICE-PPR<br>DiskoBay,North
2021-08-17T19:16:01Z,1629227762,2021,19,16,229.8028,229.8028,69.35715,-50.94965,-999.00,-999.00,-999.0,no,no,no,4434609,SPIT,USIABP,ICE-PPR<br>DiskoBay,North
2021-08-17T20:15:04Z,1629231304,2021,20,15,229.8438,229.8438,69.35607,-50.94899,-999.00,-999.00,-999.0,no,no,no,4434609,SPIT,USIABP,ICE-PPR<br>DiskoBay,North
2021-08-17T20:45:01Z,1629233101,2021,20,45,229.8646,229.8646,69.35594,-50.94865,-999.00,-999.00,-999.0,no,no,no,4434609,SPIT,USIABP,ICE-PPR<br>DiskoBay,North
2021-08-17T21:14:58Z,1629234899,2021,21,15,229.8854,229.8854,69.3556,-50.94891,-999.00,-999.00,-999.0,no,no,no,4434609,SPIT,USIABP,ICE-PPR<br>DiskoBay,North
2021-08-17T21:45:56Z,1629236756,2021,21,46,229.9069,229.9069,69.35551,-50.95023,-999.00,-999.00,-999.0,no,no,no,4434609,SPIT,USIABP,ICE-PPR<br>DiskoBay,North
2021-08-18T02:45:01Z,1629254701,2021,2,45,230.1146,230.1146,69.35621,-50.95184,-999.00,-999.00,-999.0,no,no,no,4434609,SPIT,USIABP,ICE-PPR<br>DiskoBay,North
2021-08-18T03:13:58Z,1629256438,2021,3,14,230.1347,230.1347,69.35615,-50.95172,-999.00,-999.00,-999.0,no,no,no,4434609,SPIT,USIABP,ICE-PPR<br>DiskoBay,North
2021-08-18T03:44:03Z,1629258244,2021,3,44,230.1556,230.1556,69.35619,-50.95172,-999.00,-999.00,-999.0,no,no,no,4434609,SPIT,USIABP,ICE-PPR<br>DiskoBay,North
2021-08-18T04:14:00Z,1629260041,2021,4,14,230.1764,230.1764,69.35596,-50.95102,-999.00,-999.00,-999.0,no,no,no,4434609,SPIT,USIABP,ICE-PPR<br>DiskoBay,North
2021-08-18T04:43:58Z,1629261838,2021,4,44,230.1972,230.1972,69.35587,-50.95001,-999.00,-999.00,-999.0,no,no,no,4434609,SPIT,USIABP,ICE-PPR<br>DiskoBay,North
2021-08-18T06:13:58Z,1629267238,2021,6,14,230.2597,230.2597,69.3558,-50.95068,-999.00,-999.00,-999.0,no,no,no,4434609,SPIT,USIABP,ICE-PPR<br>DiskoBay,North
2021-08-18T06:43:03Z,1629268983,2021,6,43,230.2799,230.2799,69.35592,-50.9508,-999.00,-999.00,-999.0,no,no,no,4434609,SPIT,USIABP,ICE-PPR<br>DiskoBay,North
2021-08-18T07:13:00Z,1629270780,2021,7,13,230.3007,230.3007,69.35608,-50.95071,-999.00,-999.00,-999.0,no,no,no,4434609,SPIT,USIABP,ICE-PPR<br>DiskoBay,North
2021-08-18T08:12:02Z,1629274323,2021,8,12,230.3417,230.3417,69.3559,-50.9504,-999.00,-999.00,-999.0,no,no,no,4434609,SPIT,USIABP,ICE-PPR<br>DiskoBay,North
2021-08-18T08:42:00Z,1629276120,2021,8,42,230.3625,230.3625,69.35581,-50.95066,-999.00,-999.00,-999.0,no,no,no,4434609,SPIT,USIABP,ICE-PPR<br>DiskoBay,North
2021-08-18T09:11:57Z,1629277917,2021,9,12,230.3833,230.3833,69.4016,-51.09494,-999.00,-999.00,-999.0,no,no,no,4434609,SPIT,USIABP,ICE-PPR<br>DiskoBay,North
2021-08-18T09:43:03Z,1629279783,2021,9,43,230.4049,230.4049,69.49167,-51.26599,-999.00,-999.00,-999.0,no,no,no,4434609,SPIT,USIABP,ICE-PPR<br>DiskoBay,North
2021-08-18T10:12:00Z,1629281520,2021,10,12,230.425,230.425,69.58399,-51.44445,-999.00,-999.00,-999.0,no,no,no,4434609,SPIT,USIABP,ICE-PPR<br>DiskoBay,North
2021-08-18T10:41:57Z,1629283317,2021,10,42,230.4458,230.4458,69.69235,-51.51852,-999.00,-999.00,-999.0,no,no,no,4434609,SPIT,USIABP,ICE-PPR<br>DiskoBay,North
2021-08-18T11:12:02Z,1629285123,2021,11,12,230.4667,230.4667,69.78573,-51.50256,-999.00,-999.00,-999.0,no,no,no,4434609,SPIT,USIABP,ICE-PPR<br>DiskoBay,North
2021-08-18T11:42:00Z,1629286920,2021,11,42,230.4875,230.4875,69.80571,-51.49232,-999.00,-999.00,-999.0,no,no,no,4434609,SPIT,USIABP,ICE-PPR<br>DiskoBay,North
2021-08-18T12:11:57Z,1629288717,2021,12,12,230.5083,230.5083,69.82093,-51.50305,-999.00,-999.00,-999.0,no,no,no,4434609,SPIT,USIABP,ICE-PPR<br>DiskoBay,North
2021-08-18T12:42:02Z,1629290523,2021,12,42,230.5292,230.5292,69.82635,-51.50528,-999.00,-999.00,-999.0,no,no,no,4434609,SPIT,USIABP,ICE-PPR<br>DiskoBay,North
2021-08-18T13:12:00Z,1629292320,2021,13,12,230.55,230.55,69.83052,-51.5086,-999.00,-999.00,-999.0,no,no,no,4434609,SPIT,USIABP,ICE-PPR<br>DiskoBay,North
2021-08-18T13:41:57Z,1629294117,2021,13,42,230.5708,230.5708,69.83425,-51.51444,-999.00,-999.00,-999.0,no,no,no,4434609,SPIT,USIABP,ICE-PPR<br>DiskoBay,North
2021-08-18T14:12:02Z,1629295923,2021,14,12,230.5917,230.5917,69.83794,-51.52045,-999.00,-999.00,-999.0,no,no,no,4434609,SPIT,USIABP,ICE-PPR<br>DiskoBay,North
2021-08-18T14:42:00Z,1629297720,2021,14,42,230.6125,230.6125,69.84224,-51.52851,-999.00,-999.00,-999.0,no,no,no,4434609,SPIT,USIABP,ICE-PPR<br>DiskoBay,North
2021-08-18T15:11:57Z,1629299517,2021,15,12,230.6333,230.6333,69.84662,-51.53641,-999.00,-999.00,-999.0,no,no,no,4434609,SPIT,USIABP,ICE-PPR<br>DiskoBay,North
2021-08-18T17:40:59Z,1629308460,2021,17,41,230.7368,230.7368,69.86888,-51.57609,-999.00,-999.00,-999.0,no,no,no,4434609,SPIT,USIABP,ICE-PPR<br>DiskoBay,North
2021-08-18T18:10:56Z,1629310257,2021,18,11,230.7576,230.7576,69.87278,-51.58362,-999.00,-999.00,-999.0,no,no,no,4434609,SPIT,USIABP,ICE-PPR<br>DiskoBay,North
2021-08-18T18:41:02Z,1629312062,2021,18,41,230.7785,230.7785,69.87683,-51.59317,-999.00,-999.00,-999.0,no,no,no,4434609,SPIT,USIABP,ICE-PPR<br>DiskoBay,North
2021-08-18T19:40:56Z,1629315657,2021,19,41,230.8201,230.8201,69.88449,-51.61655,-999.00,-999.00,-999.0,no,no,no,4434609,SPIT,USIABP,ICE-PPR<br>DiskoBay,North
2021-08-18T20:10:01Z,1629317402,2021,20,10,230.8403,230.8403,69.88814,-51.62845,-999.00,-999.00,-999.0,no,no,no,4434609,SPIT,USIABP,ICE-PPR<br>DiskoBay,North
2021-08-18T20:39:59Z,1629319199,2021,20,40,230.8611,230.8611,69.8917,-51.6427,-999.00,-999.00,-999.0,no,no,no,4434609,SPIT,USIABP,ICE-PPR<br>DiskoBay,North
